RH
39 41 48 47 47 50 57 57 56 48 44 42 39 35 33 35 36 15 9 9 9 9 8 7 6 6 7 7 7 7 7 8 8 8 8 11 12 13 13 12 12 12 12 13 14 14 14 14 14
41 43 45 47 44 48 62 53 58 50 49 44 41 39 35 34 36 22 7 9 9 9 8 6 6 7 7 7 8 8 8 8 8 8 10 11 13 14 14 12 11 10 10 9 10 10 12 14 14
48 39 41 43 44 40 56 53 54 56 52 48 44 41 38 37 37 24 7 9 9 8 7 6 6 7 8 7 8 8 8 8 8 8 10 13 14 11 9 8 7 6 5 4 5 7 9 11 13
57 54 43 43 40 41 46 43 51 62 58 53 52 45 39 39 39 22 8 9 9 8 7 6 7 8 8 8 8 8 8 8 7 8 10 13 12 10 7 6 5 3 2 2 2 4 7 10 11
57 55 56 44 41 48 50 42 42 56 57 51 50 49 42 41 41 19 8 10 9 7 6 6 7 8 8 8 8 9 8 8 7 9 9 12 12 10 8 6 4 3 3 2 2 2 3 6 11
69 54 52 49 48 51 58 51 50 48 49 51 45 47 46 42 46 18 8 10 8 7 6 7 7 8 8 8 9 9 8 7 7 9 8 10 11 10 7 6 3 2 2 2 2 2 2 3 8
61 62 48 50 54 59 66 53 61 58 55 56 47 46 48 44 50 18 9 10 8 7 6 7 8 8 8 9 9 8 7 7 7 7 8 9 11 10 7 5 3 2 2 2 2 2 2 3 7
56 64 53 47 51 59 68 57 68 62 59 57 58 48 51 47 54 19 9 10 8 6 6 7 8 8 8 9 9 8 8 7 7 6 8 6 8 7 7 5 3 2 2 2 2 1 2 3 7
21 46 52 50 50 56 58 58 63 61 61 64 56 47 50 47 56 18 10 10 7 6 7 8 8 8 9 9 9 9 8 7 7 5 8 5 6 6 6 6 3 2 2 2 2 2 2 4 8
18 20 34 53 51 53 54 55 60 62 64 65 57 48 53 45 63 15 10 10 7 7 7 8 8 9 10 9 9 9 8 7 6 5 8 7 6 5 6 7 4 3 2 3 3 2 3 5 8
12 17 21 35 43 48 52 53 58 61 61 61 56 50 51 45 65 15 11 10 7 7 8 8 9 9 10 10 9 9 9 7 6 6 9 8 6 5 6 8 6 4 3 3 4 3 3 3 4
6 12 17 22 30 38 38 50 58 57 56 52 58 57 52 44 66 17 11 10 7 8 8 8 8 9 10 10 10 10 9 8 6 5 8 8 6 6 6 9 6 4 4 3 4 4 5 5 5
6 7 14 17 20 23 29 38 60 55 58 55 65 55 54 43 63 25 10 10 8 8 9 9 8 9 10 10 10 10 10 8 6 5 6 7 6 6 6 6 7 3 4 4 4 4 6 6 6
6 7 8 14 18 20 21 30 48 48 53 60 64 57 56 42 59 39 10 11 8 8 9 9 8 9 10 10 10 10 10 9 8 6 5 6 6 6 6 6 9 6 4 5 5 6 7 8 8
7 7 6 9 15 20 21 22 32 39 46 64 63 57 56 40 54 50 11 11 9 9 9 8 8 10 11 11 11 11 10 10 9 7 5 6 6 6 6 6 8 10 3 6 6 6 7 8 10
7 6 6 7 12 17 17 21 20 27 40 63 60 60 52 39 47 54 14 12 10 8 8 8 9 11 12 12 12 11 11 10 9 7 5 5 5 6 8 7 10 12 6 3 8 7 9 11 11
7 6 6 6 10 15 16 20 19 22 33 56 56 57 40 35 46 55 20 12 12 11 10 9 10 12 12 13 12 12 10 10 8 7 5 5 5 6 9 9 10 13 10 4 5 9 10 11 12
6 6 7 6 7 14 18 16 18 20 33 44 42 46 29 35 44 51 31 16 12 12 12 12 12 13 14 13 12 11 10 9 7 6 5 5 5 6 10 11 12 14 12 5 2 6 11 8 8
7 7 8 7 8 14 18 17 18 21 27 32 41 38 28 31 36 45 31 19 14 13 13 14 14 13 13 13 11 11 10 8 7 5 5 5 5 8 14 13 15 12 7 5 3 2 5 6 7
14 18 19 8 9 14 20 17 20 18 21 24 33 29 25 25 32 40 30 20 16 14 12 12 13 13 12 11 11 9 8 7 6 5 5 6 9 16 16 16 12 9 9 6 3 3 5 8 11
43 74 16 9 10 16 19 20 19 19 17 17 22 22 29 22 19 34 31 21 17 16 14 13 12 12 12 11 10 9 8 7 6 5 6 9 18 20 17 15 11 5 4 4 5 6 9 17 27
53 94 21 9 15 17 21 21 20 20 18 17 17 21 23 17 16 25 28 19 16 16 16 16 15 13 13 12 10 9 7 6 6 6 12 22 22 21 23 18 9 4 5 6 9 15 20 30 35
82 62 18 22 22 26 26 23 24 20 18 16 16 16 13 11 12 15 20 18 15 15 15 16 16 15 12 10 8 7 6 6 9 17 23 21 19 24 24 20 9 5 7 9 17 28 37 36 32
42 47 39 33 34 29 24 27 25 21 20 17 15 13 12 11 11 17 16 14 14 13 12 12 11 10 8 7 6 6 9 15 23 23 20 20 23 22 18 10 6 6 8 10 17 26 28 30 31
57 71 42 48 39 27 26 27 28 23 22 20 17 15 14 14 16 15 15 15 13 11 10 9 8 7 6 6 7 13 22 24 21 20 22 22 22 13 6 6 6 7 9 10 15 21 25 26 28
78 65 53 28 26 24 31 30 29 27 22 20 18 16 17 17 18 18 15 12 10 9 8 7 7 7 8 11 20 25 23 20 21 22 22 29 25 9 6 6 6 9 11 11 10 11 15 18 21
66 54 49 34 31 34 34 32 30 28 26 24 23 23 22 20 17 14 11 9 9 9 9 9 11 15 20 24 25 21 21 22 22 25 27 27 17 8 6 6 7 10 11 13 16 17 19 20 21
53 49 44 41 39 38 34 32 31 28 28 27 24 21 18 15 12 11 11 11 11 13 16 19 21 24 23 19 19 21 21 21 22 26 23 13 7 6 7 7 8 10 10 11 12 13 15 16 17
45 42 38 37 34 33 31 28 27 24 21 18 16 14 14 14 14 13 14 15 17 20 21 20 17 15 17 20 20 21 23 25 22 10 7 6 7 9 10 12 12 12 12 13 14 15 17 18 19
36 30 30 26 25 23 21 19 18 16 15 14 14 14 15 16 17 18 19 18 14 11 11 13 18 20 20 23 23 20 12 7 7 7 8 10 12 14 14 15 16 17 18 18 19 21 26 39 60
Wind_Speed
40 38 35 31 27 22 16 14 11 9 9 11 12 13 15 15 13 10 8 7 6 5 4 3 1 2 4 6 8 10 12 13 14 16 19 24 25 23 20 19 19 20 20 21 21 22 22 21 22
44 42 39 37 32 25 21 20 15 13 12 12 14 16 18 19 16 12 10 9 8 7 5 4 3 4 5 7 9 11 13 15 16 18 22 28 25 20 19 20 22 23 24 24 24 24 24 24 24
48 47 44 43 36 27 25 25 20 16 16 14 15 17 19 20 17 13 12 11 10 9 7 6 5 6 7 8 10 12 14 16 18 21 27 29 21 20 22 25 27 28 28 29 29 28 28 27 27
53 51 50 47 40 28 28 29 21 20 19 19 17 18 21 21 18 14 13 11 11 10 8 7 6 7 8 9 11 13 15 18 21 23 28 26 23 25 29 30 31 30 30 30 31 31 31 31 31
59 56 54 52 43 33 32 34 24 24 23 22 22 20 22 22 18 15 14 13 13 11 9 8 8 9 9 10 13 15 17 19 21 24 28 27 27 29 32 34 33 32 34 34 34 34 33 34 34
65 62 59 56 45 35 38 33 29 28 26 25 26 24 23 24 19 16 15 14 14 13 11 10 10 10 11 11 13 16 18 20 22 23 28 29 28 30 34 33 33 36 37 36 36 36 36 35 36
70 65 62 56 47 41 40 34 30 30 28 27 26 25 25 25 20 18 16 16 15 14 13 12 12 11 12 13 15 17 19 21 22 25 28 30 30 32 34 34 36 37 38 39 38 38 38 36 34
68 70 66 61 53 45 44 36 33 32 30 26 28 23 25 25 21 19 17 17 17 16 14 15 13 13 14 14 16 18 21 21 22 25 29 31 31 34 35 35 36 37 39 39 35 34 34 31 28
68 71 71 65 56 44 51 41 38 35 30 29 31 29 27 26 21 19 19 19 18 18 17 16 15 14 15 15 17 19 21 23 24 26 29 31 33 35 36 35 35 36 38 37 34 26 20 16 16
72 69 67 62 53 48 53 45 41 36 33 32 33 30 26 26 23 21 21 20 20 20 19 18 17 16 16 16 18 20 22 24 25 26 27 32 34 36 36 34 34 35 34 32 30 22 16 13 14
72 69 63 57 53 55 59 49 41 39 37 37 36 31 28 26 24 22 22 22 21 21 21 20 19 18 19 18 20 21 23 25 26 26 27 32 34 36 36 33 34 34 32 28 26 19 15 13 11
75 70 63 61 60 61 58 46 41 43 41 41 32 30 28 26 25 24 24 23 23 22 23 22 21 21 20 21 21 22 24 26 28 28 28 32 34 37 37 34 33 34 32 26 23 19 14 12 12
79 72 67 66 62 60 51 48 40 49 42 42 33 32 28 26 26 25 25 23 24 24 24 24 24 23 23 23 23 25 26 28 30 31 30 32 34 37 36 36 35 33 32 29 22 21 17 14 14
78 74 71 67 61 55 50 47 46 45 41 40 37 33 29 27 28 26 25 25 25 25 26 26 25 25 25 26 26 28 29 31 32 33 33 33 35 37 38 36 35 35 33 30 26 22 21 18 16
74 73 74 68 61 52 49 50 48 42 41 40 38 35 31 28 29 26 26 27 27 26 27 27 27 27 28 28 29 31 32 34 35 36 36 35 36 38 39 38 36 35 33 33 31 26 23 23 22
69 78 74 70 60 55 53 49 50 43 41 39 36 33 31 30 30 27 28 28 29 28 28 29 29 30 31 31 32 34 35 37 37 38 38 38 39 40 42 41 36 36 36 34 34 33 27 26 26
72 80 76 69 60 56 53 50 50 45 44 40 35 32 31 31 31 30 28 30 30 30 30 31 32 32 34 34 35 37 38 38 40 40 40 40 42 44 46 43 40 37 38 37 36 33 32 29 28
77 80 69 68 64 58 52 52 50 46 41 38 35 33 33 32 31 30 30 30 32 32 32 33 34 35 37 37 39 40 40 41 42 42 42 43 45 48 49 46 41 40 40 40 39 38 36 35 33
62 65 61 63 58 52 51 51 49 42 40 37 36 33 34 32 31 30 31 31 32 34 35 34 37 37 39 40 41 41 43 43 43 44 45 46 48 51 51 46 43 41 41 41 40 39 40 38 35
54 51 52 60 56 51 49 50 45 42 40 38 36 35 33 33 28 31 31 32 33 35 37 37 38 39 40 42 43 43 44 44 45 46 47 49 51 51 48 45 43 43 44 44 43 41 40 39 37
49 41 52 59 50 47 48 47 42 41 40 38 35 34 33 32 30 31 32 33 34 35 37 38 39 40 42 44 44 45 46 47 48 49 50 50 51 49 46 45 46 45 44 44 42 40 40 39 37
48 44 53 53 44 44 43 45 43 40 38 37 35 32 32 32 32 31 32 34 35 36 38 39 41 42 43 45 46 46 47 49 50 51 50 50 51 49 48 49 47 46 45 43 40 38 38 38 37
50 51 47 36 41 40 40 42 42 41 38 34 32 32 32 32 32 33 32 35 37 38 39 41 43 44 45 46 46 48 49 50 51 50 52 54 52 50 50 50 48 46 44 42 39 38 38 37 37
49 42 37 38 41 40 40 39 38 36 31 32 31 31 31 32 33 34 36 36 37 39 40 42 43 44 45 46 49 51 51 50 51 54 54 53 51 51 50 49 47 46 43 41 39 39 39 38 39
39 39 39 39 39 38 35 33 30 29 24 27 27 29 28 30 33 34 35 36 38 39 41 42 43 45 47 50 51 50 51 53 55 54 53 52 52 51 49 48 47 45 43 41 41 41 41 42 43
39 40 34 35 34 32 29 27 23 21 21 22 23 24 26 29 31 34 35 37 39 40 41 43 46 48 51 51 51 53 54 54 54 54 54 54 53 51 50 50 48 44 42 42 43 44 45 46 47
36 35 29 26 25 24 23 19 20 18 18 21 23 24 26 29 32 35 37 39 41 43 45 48 50 51 53 54 55 55 55 54 54 55 55 55 54 53 53 51 47 44 43 44 44 45 46 48 50
35 32 28 25 22 19 17 17 18 18 19 21 23 25 28 31 34 36 39 43 45 46 48 50 53 55 56 57 56 55 55 56 57 58 57 55 54 54 52 49 47 46 46 46 47 49 50 52 54
33 29 25 20 17 15 15 14 15 16 18 21 24 28 31 33 37 41 44 47 49 51 53 55 56 55 54 54 56 57 58 59 58 57 56 56 54 52 50 49 48 48 49 50 51 52 54 56 58
32 27 23 16 13 12 11 14 16 19 21 24 27 31 35 39 42 45 48 50 52 52 52 52 53 55 57 58 59 58 58 59 59 58 56 54 53 53 52 51 51 52 52 54 55 56 58 60 62
Wind_Direction
233 235 235 235 233 233 235 240 248 250 275 296 311 322 323 318 305 277 267 259 244 238 244 262 306 340 346 346 345 353 354 356 354 350 347 346 344 340 334 331 330 330 327 322 316 311 305 300 297
233 235 236 237 235 232 235 240 247 253 266 286 300 312 311 314 306 277 255 252 246 242 244 257 280 310 324 331 339 345 346 347 347 346 346 344 342 340 342 340 334 329 324 319 313 309 304 300 297
235 235 236 237 235 230 239 244 244 257 266 275 290 302 308 309 298 274 255 251 245 240 243 252 272 295 308 321 333 339 342 341 339 342 343 344 349 351 346 343 336 328 321 313 306 299 294 292 290
235 235 237 237 237 231 238 247 252 254 262 275 285 296 301 302 294 269 253 248 242 240 243 254 274 293 307 320 329 335 335 335 336 343 345 347 344 345 344 341 334 328 321 316 307 300 291 287 284
236 237 237 238 236 232 235 245 244 253 262 271 280 295 300 300 287 260 249 243 239 239 243 256 272 290 304 318 325 330 333 332 335 343 345 343 340 340 339 338 336 331 325 320 313 304 292 282 279
235 236 237 238 236 235 241 244 245 250 259 269 278 290 296 295 279 255 244 242 239 239 243 253 268 285 300 315 322 325 330 330 332 337 342 342 338 337 336 339 336 331 328 323 316 307 294 282 277
234 236 239 242 237 235 241 241 244 250 257 265 278 285 291 292 272 254 241 240 239 239 244 255 267 282 296 309 317 324 326 328 327 334 338 340 337 336 339 340 336 334 331 326 319 309 293 281 276
232 235 236 239 236 235 238 240 242 248 254 267 270 282 290 284 268 253 240 236 238 240 245 255 267 280 293 303 314 321 323 325 327 333 336 338 337 336 339 341 337 335 332 330 325 316 299 286 281
229 232 233 236 237 232 241 239 242 250 254 257 269 274 283 281 265 252 239 234 237 243 247 255 265 277 288 301 312 316 319 321 324 330 335 336 336 338 339 341 336 336 337 337 335 333 323 313 298
228 230 232 235 239 236 241 241 241 244 247 253 263 272 276 277 262 250 240 236 237 244 250 256 264 274 287 298 305 312 317 319 321 327 332 332 334 336 339 336 333 335 339 341 342 343 351 337 314
226 228 230 230 229 233 240 240 237 241 247 253 260 269 274 273 261 250 240 238 239 245 253 260 267 278 287 296 302 310 314 314 315 321 325 329 331 333 336 332 333 330 333 338 339 339 349 345 335
223 224 227 228 228 232 238 237 234 243 246 255 262 263 267 268 259 252 241 238 240 246 253 261 269 277 286 294 301 308 310 309 311 314 317 324 328 331 333 329 328 324 324 329 334 334 342 339 331
221 222 225 227 228 230 231 233 225 240 244 251 250 257 264 265 258 254 245 240 242 248 255 264 271 278 286 292 299 303 306 306 308 310 308 316 323 325 327 326 322 320 315 317 321 320 323 325 321
221 221 223 225 226 229 229 230 233 240 242 243 248 255 262 263 257 256 248 245 245 250 257 264 272 280 285 292 297 300 303 304 305 305 305 308 316 320 322 321 316 317 308 306 308 308 308 309 307
218 221 219 222 224 224 226 229 231 232 237 240 246 252 258 258 255 257 251 248 249 252 259 267 274 279 284 289 294 297 300 301 301 303 304 303 309 314 316 316 311 308 307 299 298 296 295 297 299
215 217 219 220 222 222 224 226 232 230 235 239 244 249 254 252 252 256 251 251 252 255 261 268 272 277 283 288 292 295 297 298 299 301 302 301 304 308 310 310 307 303 303 294 290 290 287 288 289
210 216 215 218 220 221 223 224 228 227 232 236 241 246 250 249 250 255 254 255 257 259 262 267 272 278 282 287 291 293 294 296 298 299 300 300 301 303 307 308 304 298 297 296 282 280 282 285 285
210 214 215 218 217 219 221 225 225 227 232 236 239 243 247 246 250 257 257 258 260 263 265 269 275 279 283 287 290 292 293 295 296 298 300 299 299 302 305 306 300 295 294 294 289 275 275 277 279
209 212 213 215 216 217 221 226 228 227 232 236 239 243 246 248 251 260 261 262 264 267 270 273 277 281 285 287 289 291 293 295 297 299 298 298 299 302 306 304 298 296 295 295 291 280 271 270 271
200 203 202 213 213 215 217 225 227 225 230 234 238 243 246 250 254 262 266 266 268 271 274 277 279 282 285 287 289 291 293 294 296 297 297 299 301 306 306 300 299 298 297 295 291 281 272 268 268
189 183 202 212 209 211 216 223 224 227 231 235 240 245 249 255 257 264 270 270 271 274 276 279 281 284 286 288 290 292 294 294 295 295 297 300 305 307 302 301 299 299 299 296 289 282 275 274 273
172 181 200 206 202 210 213 222 226 227 231 235 240 246 252 255 260 263 273 275 274 275 277 281 283 285 286 289 291 292 293 293 294 296 299 303 305 302 299 301 301 300 298 292 286 282 278 277 278
170 187 196 190 198 204 212 220 225 227 232 238 245 248 253 258 264 269 271 275 276 277 279 281 282 285 288 290 291 291 291 293 296 300 303 303 301 301 302 301 299 299 294 289 284 284 283 282 280
181 180 179 187 195 203 211 220 228 229 235 241 246 253 258 263 266 269 273 275 277 278 280 282 284 287 288 289 289 290 292 297 301 302 300 300 301 301 299 298 298 297 291 286 284 283 284 282 281
173 170 179 185 194 203 211 221 230 238 241 247 249 255 259 263 267 271 275 277 279 281 282 284 286 287 286 286 289 295 298 299 299 298 299 301 300 299 298 298 299 295 288 283 281 280 280 281 281
166 167 181 188 194 202 211 222 230 240 241 250 255 257 262 266 272 275 277 279 280 282 283 283 284 285 286 290 295 297 297 296 296 298 299 300 300 299 298 298 296 292 287 282 280 281 282 285 285
162 161 171 183 194 201 212 219 227 238 246 254 262 268 271 273 274 275 276 278 280 280 281 283 285 288 290 292 294 294 293 295 297 297 297 297 297 297 296 296 293 290 288 285 285 284 283 283 284
158 158 164 175 185 190 203 217 233 243 252 260 265 269 270 270 272 275 276 276 277 280 283 285 286 289 291 292 291 292 294 294 295 296 295 294 294 295 295 294 291 288 287 286 285 284 284 284 284
147 151 155 163 177 191 209 222 234 244 251 256 260 262 266 270 271 272 274 277 280 283 286 288 290 291 291 291 291 291 292 292 291 291 293 294 294 294 293 292 290 288 287 286 284 284 283 283 284
147 146 152 157 171 194 207 219 231 244 252 257 262 265 267 270 274 278 282 286 288 289 290 290 288 287 287 287 288 289 289 291 292 293 293 293 293 292 291 289 288 286 285 284 284 284 285 286 286